Terug naar catalogus

STARLINK-31545

ActiefCommunicatieVLEO
NORAD 59400·PAYLOAD·🇺🇸 United States

Gelanceerd Apr 5, 2024 vanaf Cape Canaveral Space Force Station

Loading…

Volgende Passages (komende 24 uur)

TLE

VersSource: CelesTrak SupGP

Epoch: Sep 14, 2026, 20:56 UTC

1 59400C 24064C   26257.87270833  .00027101  00000+0  98166-3 0  2574
2 59400  43.0006  67.5489 0001436 274.0163   5.5707 15.27562418    15

Volg STARLINK-31545 in realtime met AllMySat

Download on the App Store